ELY323 LLBG-LFPG

Flight info

Callsign ELY323
Flight time N/A
Altitude 34000
Route SUVAS L53 ANIDE DCT LATMO UL53 SOTIX DCT MIL DCT TRL UM601 KFN DCT RUTOM DCT TAGEL DCT POKAV DCT RUGOX DCT MADKA DCT AJO DCT OMEDA DCT MERLU DCT PIGOS DCT BARSO DCT OKTET DCT GIPNO DCT LOGNI DCT MOKIP DCT ARFOZ DCT TINIL
Aircraft B738/M-SDE2E3FGHIRWXY/LB1

Departure

Time 2026-05-06 13:09
Airport Ben Gurion International Airport (LLBG)

Arrival

Time N/A
Airport Charles de Gaulle International Airport (LFPG)
Time Latitude Longitude Altitude Speed Heading
2026-05-06 12:43 32.00611 34.87091 112 ft 0 kts 146°
2026-05-06 12:58 32.00619 34.87084 111 ft 4 kts 143°
2026-05-06 12:58 32.00639 34.87063 111 ft 4 kts 128°
2026-05-06 12:58 32.00652 34.87037 111 ft 4 kts 99°
2026-05-06 12:58 32.00649 34.87012 112 ft 3 kts 38°
2026-05-06 12:59 32.00647 34.87009 112 ft 1 kts 33°
2026-05-06 13:02 32.00662 34.87021 113 ft 6 kts 33°
2026-05-06 13:02 32.00712 34.87058 112 ft 11 kts 32°
2026-05-06 13:02 32.00794 34.87116 115 ft 17 kts 31°
2026-05-06 13:02 32.00886 34.87182 115 ft 12 kts 35°
2026-05-06 13:03 32.00889 34.87272 114 ft 15 kts 118°
2026-05-06 13:03 32.00826 34.87395 115 ft 20 kts 122°
2026-05-06 13:03 32.00744 34.87553 116 ft 25 kts 122°
2026-05-06 13:03 32.00648 34.87738 117 ft 24 kts 121°
2026-05-06 13:04 32.00580 34.87870 116 ft 11 kts 111°
2026-05-06 13:04 32.00609 34.87933 116 ft 6 kts 32°
2026-05-06 13:04 32.00620 34.87941 117 ft 3 kts 31°
2026-05-06 13:04 32.00654 34.87964 118 ft 8 kts 30°
2026-05-06 13:05 32.00709 34.88003 117 ft 11 kts 31°
2026-05-06 13:05 32.00785 34.88057 119 ft 15 kts 30°
2026-05-06 13:05 32.00884 34.88130 119 ft 19 kts 32°
2026-05-06 13:05 32.01006 34.88217 119 ft 22 kts 30°
2026-05-06 13:06 32.01145 34.88315 120 ft 25 kts 31°
2026-05-06 13:06 32.01294 34.88435 121 ft 27 kts 39°
2026-05-06 13:06 32.01420 34.88612 125 ft 29 kts 60°
2026-05-06 13:06 32.01481 34.88771 123 ft 20 kts 72°
2026-05-06 13:07 32.01513 34.88948 125 ft 24 kts 81°
2026-05-06 13:07 32.01551 34.89136 126 ft 21 kts 53°
2026-05-06 13:07 32.01661 34.89143 125 ft 16 kts 350°
2026-05-06 13:07 32.01746 34.89115 126 ft 5 kts 291°
2026-05-06 13:08 32.01743 34.89074 124 ft 5 kts 259°
2026-05-06 13:08 32.01733 34.89008 124 ft 22 kts 260°
2026-05-06 13:08 32.01664 34.88549 123 ft 91 kts 260°
2026-05-06 13:08 32.01513 34.87572 113 ft 149 kts 259°
2026-05-06 13:09 32.01329 34.86231 415 ft 173 kts 266°
2026-05-06 13:09 32.01110 34.84854 1323 ft 170 kts 261°
2026-05-06 13:09 32.00829 34.83493 2046 ft 178 kts 258°
2026-05-06 13:09 32.00507 34.81971 2328 ft 204 kts 258°
2026-05-06 13:10 32.00144 34.80271 2576 ft 224 kts 258°
2026-05-06 13:10 31.99761 34.78477 3104 ft 231 kts 257°
2026-05-06 13:10 31.99352 34.76544 3427 ft 252 kts 257°
2026-05-06 13:10 31.99289 34.74466 4072 ft 259 kts 282°
2026-05-06 13:11 31.99867 34.72454 4839 ft 262 kts 290°
2026-05-06 13:11 32.00463 34.70446 5728 ft 258 kts 286°
2026-05-06 13:11 32.00954 34.68388 6457 ft 262 kts 285°
2026-05-06 13:11 32.01431 34.66286 7081 ft 267 kts 284°
2026-05-06 13:12 32.01914 34.64157 7805 ft 269 kts 284°
2026-05-06 13:12 32.02401 34.62022 8561 ft 271 kts 284°
2026-05-06 13:12 32.02895 34.59874 9303 ft 271 kts 284°
2026-05-06 13:12 32.03384 34.57757 10067 ft 272 kts 284°
2026-05-06 13:13 32.03891 34.55565 10472 ft 286 kts 284°
2026-05-06 13:13 32.04437 34.53213 10624 ft 307 kts 284°
2026-05-06 13:13 32.05020 34.50700 10786 ft 327 kts 284°
2026-05-06 13:13 32.05639 34.48039 10921 ft 346 kts 284°
2026-05-06 13:14 32.06294 34.45222 11054 ft 364 kts 284°
2026-05-06 13:14 32.06977 34.42288 11294 ft 376 kts 284°
2026-05-06 13:14 32.07675 34.39289 11782 ft 379 kts 284°
2026-05-06 13:14 32.08373 34.36291 12376 ft 380 kts 284°
2026-05-06 13:15 32.09073 34.33276 12942 ft 382 kts 284°
2026-05-06 13:15 32.09766 34.30287 13476 ft 384 kts 284°
2026-05-06 13:15 32.10470 34.27245 13994 ft 386 kts 284°
2026-05-06 13:15 32.11179 34.24180 14447 ft 387 kts 284°
2026-05-06 13:16 32.11887 34.21114 14938 ft 388 kts 284°
2026-05-06 13:16 32.12598 34.18034 15406 ft 390 kts 284°
2026-05-06 13:16 32.13312 34.14932 15867 ft 392 kts 284°
2026-05-06 13:16 32.14029 34.11819 16326 ft 393 kts 284°
2026-05-06 13:17 32.14747 34.08693 16778 ft 395 kts 284°
2026-05-06 13:17 32.15459 34.05592 17198 ft 397 kts 284°
2026-05-06 13:17 32.16183 34.02437 17633 ft 398 kts 284°
2026-05-06 13:17 32.16949 33.99292 18061 ft 400 kts 288°
2026-05-06 13:18 32.18051 33.96256 18449 ft 403 kts 294°
2026-05-06 13:18 32.18881 33.94290 18695 ft 404 kts 295°
2026-05-06 13:18 32.20141 33.91318 19075 ft 405 kts 295°
2026-05-06 13:18 32.21401 33.88336 19434 ft 406 kts 294°
2026-05-06 13:19 32.22658 33.85340 19790 ft 407 kts 294°
2026-05-06 13:19 32.23910 33.82337 20138 ft 409 kts 294°
2026-05-06 13:19 32.25162 33.79316 20490 ft 410 kts 294°
2026-05-06 13:19 32.26417 33.76279 20841 ft 411 kts 294°
2026-05-06 13:20 32.27672 33.73233 21180 ft 412 kts 294°
2026-05-06 13:20 32.28913 33.70217 21509 ft 414 kts 293°
2026-05-06 13:20 32.30172 33.67152 21846 ft 415 kts 293°
2026-05-06 13:20 32.31435 33.64078 22186 ft 416 kts 293°
2026-05-06 13:21 32.32697 33.61000 22503 ft 417 kts 293°
2026-05-06 13:21 32.33965 33.57909 22790 ft 419 kts 293°
2026-05-06 13:21 32.35237 33.54803 23118 ft 419 kts 293°
2026-05-06 13:21 32.36507 33.51700 23447 ft 420 kts 293°
2026-05-06 13:22 32.37781 33.48585 23707 ft 421 kts 293°
2026-05-06 13:22 32.39058 33.45458 23924 ft 423 kts 293°
2026-05-06 13:22 32.40341 33.42314 24145 ft 424 kts 293°
2026-05-06 13:22 32.41627 33.39162 24374 ft 425 kts 293°
2026-05-06 13:23 32.42915 33.36003 24606 ft 427 kts 293°
2026-05-06 13:23 32.44192 33.32866 24805 ft 428 kts 293°
2026-05-06 13:23 32.45484 33.29689 25029 ft 429 kts 293°
2026-05-06 13:23 32.46781 33.26497 25248 ft 430 kts 293°
2026-05-06 13:24 32.48077 33.23304 25486 ft 431 kts 293°
2026-05-06 13:24 32.49372 33.20112 25795 ft 429 kts 293°
2026-05-06 13:24 32.50664 33.16928 26149 ft 427 kts 293°
2026-05-06 13:24 32.51950 33.13753 26489 ft 426 kts 293°
2026-05-06 13:25 32.53230 33.10588 26782 ft 426 kts 293°
2026-05-06 13:25 32.54509 33.07423 27091 ft 425 kts 293°
2026-05-06 13:25 32.55783 33.04268 27439 ft 423 kts 293°
2026-05-06 13:25 32.57054 33.01119 27796 ft 422 kts 292°
2026-05-06 13:26 32.58304 32.98018 28113 ft 421 kts 292°
2026-05-06 13:26 32.59563 32.94890 28428 ft 421 kts 292°
2026-05-06 13:26 32.60823 32.91759 28768 ft 419 kts 292°
2026-05-06 13:26 32.62075 32.88643 29136 ft 418 kts 292°
2026-05-06 13:27 32.63324 32.85533 29484 ft 417 kts 292°
2026-05-06 13:27 32.64568 32.82433 29808 ft 416 kts 292°
2026-05-06 13:27 32.65810 32.79337 30139 ft 415 kts 292°
2026-05-06 13:27 32.67047 32.76247 30423 ft 414 kts 292°
2026-05-06 13:28 32.68283 32.73159 30679 ft 414 kts 292°
2026-05-06 13:28 32.69518 32.70069 30908 ft 414 kts 292°
2026-05-06 13:28 32.70754 32.66975 31157 ft 413 kts 292°
2026-05-06 13:28 32.71983 32.63895 31420 ft 412 kts 292°
2026-05-06 13:29 32.73198 32.60850 31663 ft 412 kts 293°
2026-05-06 13:29 32.74424 32.57772 31896 ft 412 kts 293°
2026-05-06 13:29 32.75650 32.54690 32142 ft 411 kts 293°
2026-05-06 13:29 32.76870 32.51623 32390 ft 410 kts 293°
2026-05-06 13:30 32.78088 32.48557 32625 ft 410 kts 293°
2026-05-06 13:30 32.79307 32.45487 32853 ft 410 kts 293°
2026-05-06 13:30 32.80507 32.42462 33080 ft 409 kts 293°
2026-05-06 13:30 32.81772 32.39423 33260 ft 411 kts 297°
2026-05-06 13:31 32.83346 32.36554 33395 ft 414 kts 301°
2026-05-06 13:31 32.84995 32.33746 33585 ft 414 kts 302°
2026-05-06 13:31 32.86643 32.30941 33828 ft 413 kts 302°
2026-05-06 13:31 32.88284 32.28141 34050 ft 412 kts 302°
2026-05-06 13:32 32.89923 32.25331 34055 ft 414 kts 302°
2026-05-06 13:32 32.93202 32.19678 34064 ft 413 kts 301°
2026-05-06 13:33 32.96433 32.14085 34068 ft 411 kts 301°
2026-05-06 13:33 32.99666 32.08477 34075 ft 409 kts 301°
2026-05-06 13:34 33.02888 32.02878 34092 ft 409 kts 302°
2026-05-06 13:34 33.06106 31.97277 34084 ft 408 kts 302°
2026-05-06 13:35 33.09288 31.91732 34072 ft 408 kts 302°
2026-05-06 13:35 33.12481 31.86160 34078 ft 408 kts 302°
2026-05-06 13:36 33.15688 31.80553 34075 ft 408 kts 302°
2026-05-06 13:36 33.18888 31.74951 34075 ft 408 kts 302°
2026-05-06 13:37 33.22073 31.69367 34072 ft 409 kts 302°
2026-05-06 13:37 33.25276 31.63743 34074 ft 409 kts 302°
2026-05-06 13:38 33.28478 31.58112 34074 ft 409 kts 302°
2026-05-06 13:38 33.31677 31.52477 34078 ft 409 kts 302°
2026-05-06 13:39 33.34872 31.46841 34079 ft 409 kts 302°
2026-05-06 13:39 33.38041 31.41243 34071 ft 409 kts 302°
2026-05-06 13:40 33.41227 31.35607 34074 ft 408 kts 302°
2026-05-06 13:40 33.44406 31.29973 34075 ft 408 kts 302°
2026-05-06 13:41 33.47586 31.24328 34090 ft 408 kts 302°
2026-05-06 13:41 33.50760 31.18686 34076 ft 408 kts 302°
2026-05-06 13:42 33.53910 31.13078 34077 ft 407 kts 302°
2026-05-06 13:42 33.57069 31.07447 34073 ft 407 kts 302°
2026-05-06 13:43 33.60224 31.01812 34078 ft 406 kts 302°
2026-05-06 13:43 33.63374 30.96179 34079 ft 406 kts 302°
2026-05-06 13:44 33.66520 30.90544 34074 ft 406 kts 302°
2026-05-06 13:44 33.69657 30.84914 34077 ft 405 kts 302°
2026-05-06 13:45 33.72778 30.79308 34073 ft 405 kts 302°
2026-05-06 13:45 33.77474 30.70854 34071 ft 405 kts 302°
2026-05-06 13:46 33.80598 30.65219 34076 ft 405 kts 302°
2026-05-06 13:46 33.83722 30.59575 34077 ft 405 kts 302°
2026-05-06 13:47 33.86826 30.53959 34079 ft 405 kts 302°
2026-05-06 13:47 33.89948 30.48301 34075 ft 405 kts 302°
2026-05-06 13:48 33.93066 30.42641 34085 ft 405 kts 302°
2026-05-06 13:48 33.96177 30.36986 34076 ft 405 kts 302°
2026-05-06 13:49 33.99283 30.31330 34075 ft 404 kts 302°
2026-05-06 13:49 34.02388 30.25669 34073 ft 404 kts 302°
2026-05-06 13:50 34.05482 30.20018 34074 ft 404 kts 302°
2026-05-06 13:50 34.08574 30.14360 34076 ft 403 kts 302°
2026-05-06 13:51 34.11639 30.08743 34067 ft 403 kts 302°
2026-05-06 13:51 34.14723 30.03084 34074 ft 404 kts 302°
2026-05-06 13:52 34.17890 29.97467 34074 ft 404 kts 305°
2026-05-06 13:52 34.21271 29.92023 34075 ft 404 kts 306°
2026-05-06 13:53 34.24651 29.86635 34074 ft 405 kts 306°
2026-05-06 13:53 34.28037 29.81192 34060 ft 405 kts 306°
2026-05-06 13:54 34.31415 29.75727 34076 ft 406 kts 306°
2026-05-06 13:54 34.34796 29.70238 34103 ft 406 kts 306°
2026-05-06 13:55 34.38147 29.64788 34084 ft 405 kts 306°
2026-05-06 13:55 34.41510 29.59310 34070 ft 405 kts 306°
2026-05-06 13:56 34.44861 29.53843 34063 ft 404 kts 306°
2026-05-06 13:56 34.48210 29.48371 34074 ft 404 kts 306°
2026-05-06 13:57 34.51563 29.42884 34075 ft 405 kts 306°
2026-05-06 13:57 34.54914 29.37393 34074 ft 405 kts 306°
2026-05-06 13:58 34.58266 29.31891 34074 ft 406 kts 306°
2026-05-06 13:58 34.61622 29.26373 34074 ft 406 kts 306°
2026-05-06 13:59 34.64959 29.20880 34065 ft 407 kts 306°
2026-05-06 13:59 34.68318 29.15341 34074 ft 408 kts 306°
2026-05-06 14:00 34.71686 29.09778 34077 ft 409 kts 306°
2026-05-06 14:00 34.75057 29.04201 34073 ft 409 kts 306°
2026-05-06 14:01 34.78430 28.98613 34071 ft 410 kts 305°
2026-05-06 14:01 34.81804 28.93014 34059 ft 411 kts 305°
2026-05-06 14:02 34.85186 28.87393 34070 ft 412 kts 305°
2026-05-06 14:02 34.88553 28.81789 34070 ft 413 kts 305°
2026-05-06 14:03 34.91940 28.76141 34070 ft 413 kts 305°
2026-05-06 14:03 34.95329 28.70481 34071 ft 413 kts 305°
2026-05-06 14:04 34.98715 28.64817 34053 ft 414 kts 305°
2026-05-06 14:04 35.02110 28.59130 34072 ft 415 kts 305°
2026-05-06 14:05 35.05506 28.53430 34070 ft 416 kts 305°
2026-05-06 14:05 35.08911 28.47706 34065 ft 417 kts 305°
2026-05-06 14:06 35.11742 28.42942 34067 ft 417 kts 305°
2026-05-06 14:06 35.15048 28.37113 34070 ft 417 kts 301°
2026-05-06 14:07 35.18041 28.31048 34063 ft 416 kts 301°
2026-05-06 14:07 35.20976 28.25007 34071 ft 416 kts 301°
2026-05-06 14:08 35.23942 28.18934 34069 ft 416 kts 301°
2026-05-06 14:08 35.26916 28.12863 34067 ft 415 kts 301°
2026-05-06 14:09 35.29885 28.06802 34070 ft 415 kts 301°
2026-05-06 14:09 35.32857 28.00727 34065 ft 415 kts 301°
2026-05-06 14:10 35.35824 27.94649 34068 ft 416 kts 301°
2026-05-06 14:10 35.38788 27.88567 34069 ft 416 kts 301°
2026-05-06 14:11 35.41748 27.82482 34068 ft 416 kts 301°
2026-05-06 14:11 35.44710 27.76384 34071 ft 416 kts 301°
2026-05-06 14:12 35.47648 27.70322 34066 ft 416 kts 301°
2026-05-06 14:12 35.50605 27.64212 34060 ft 416 kts 301°
2026-05-06 14:13 35.53556 27.58102 34073 ft 416 kts 301°
2026-05-06 14:13 35.56506 27.51983 34070 ft 416 kts 301°
2026-05-06 14:14 35.59452 27.45863 34058 ft 416 kts 301°
2026-05-06 14:14 35.62383 27.39763 34076 ft 417 kts 301°
2026-05-06 14:15 35.65330 27.33617 34075 ft 417 kts 301°
2026-05-06 14:15 35.68282 27.27452 34076 ft 418 kts 301°
2026-05-06 14:16 35.71228 27.21286 34079 ft 418 kts 301°
2026-05-06 14:16 35.74170 27.15118 34076 ft 418 kts 301°
2026-05-06 14:17 35.77111 27.08941 34089 ft 418 kts 301°
2026-05-06 14:17 35.80036 27.02787 34080 ft 419 kts 301°
2026-05-06 14:18 35.82930 26.96550 34081 ft 419 kts 297°
2026-05-06 14:18 35.85423 26.90047 34090 ft 420 kts 296°
2026-05-06 14:19 35.87916 26.83535 34079 ft 420 kts 296°
2026-05-06 14:19 35.90449 26.77035 34090 ft 421 kts 296°
2026-05-06 14:20 35.92989 26.70507 34086 ft 422 kts 296°
2026-05-06 14:20 35.95523 26.63970 34084 ft 423 kts 296°
2026-05-06 14:21 35.98039 26.57455 34092 ft 423 kts 296°
2026-05-06 14:21 36.00569 26.50891 34092 ft 424 kts 296°
2026-05-06 14:22 36.03102 26.44304 34086 ft 425 kts 296°
2026-05-06 14:22 36.05632 26.37708 34093 ft 425 kts 296°
2026-05-06 14:23 36.08165 26.31096 34096 ft 425 kts 296°
2026-05-06 14:23 36.10695 26.24474 34080 ft 426 kts 296°
2026-05-06 14:24 36.13206 26.17891 34099 ft 426 kts 296°
2026-05-06 14:24 36.15728 26.11264 34088 ft 425 kts 296°
2026-05-06 14:25 36.18246 26.04636 34088 ft 425 kts 296°
2026-05-06 14:25 36.20755 25.98016 34090 ft 425 kts 296°
2026-05-06 14:26 36.23263 25.91384 34086 ft 425 kts 296°
2026-05-06 14:26 36.25764 25.84756 34085 ft 425 kts 296°
2026-05-06 14:27 36.28247 25.78163 34100 ft 424 kts 296°
2026-05-06 14:27 36.30740 25.71530 34102 ft 424 kts 296°
2026-05-06 14:28 36.33234 25.64881 34092 ft 424 kts 296°
2026-05-06 14:28 36.35721 25.58236 34102 ft 425 kts 296°
2026-05-06 14:29 36.38191 25.51622 34103 ft 425 kts 296°
2026-05-06 14:29 36.40673 25.44962 34103 ft 425 kts 296°
2026-05-06 14:30 36.43154 25.38289 34103 ft 425 kts 295°
2026-05-06 14:30 36.45632 25.31610 34101 ft 426 kts 295°
2026-05-06 14:31 36.48108 25.24923 34089 ft 426 kts 295°
2026-05-06 14:31 36.50582 25.18228 34090 ft 426 kts 295°
2026-05-06 14:32 36.53055 25.11520 34091 ft 427 kts 295°
2026-05-06 14:32 36.55526 25.04804 34089 ft 427 kts 295°
2026-05-06 14:33 36.57976 24.98130 34083 ft 427 kts 295°
2026-05-06 14:33 36.60439 24.91406 34087 ft 427 kts 295°
2026-05-06 14:34 36.62900 24.84673 34087 ft 427 kts 295°
2026-05-06 14:34 36.65358 24.77933 34090 ft 427 kts 295°
2026-05-06 14:35 36.67811 24.71191 34086 ft 427 kts 295°
2026-05-06 14:35 36.70260 24.64446 34093 ft 427 kts 295°
2026-05-06 14:36 36.72688 24.57746 34082 ft 427 kts 295°
2026-05-06 14:36 36.75123 24.51002 34087 ft 426 kts 294°
2026-05-06 14:37 36.77332 24.44141 34082 ft 427 kts 291°
2026-05-06 14:37 36.79436 24.37207 34077 ft 426 kts 291°
2026-05-06 14:38 36.81551 24.30284 34084 ft 426 kts 291°
2026-05-06 14:38 36.83670 24.23413 34080 ft 426 kts 291°
2026-05-06 14:39 36.85805 24.16508 34080 ft 426 kts 291°
2026-05-06 14:39 36.88238 24.09764 34071 ft 426 kts 303°